This is the latest recevied weather packets stored in our database for station/object KF7SOJ. If no packets are shown the sender has not sent any weather packets the latest 10 day(s).
| Time | Temp. | Humidity | Pressure | Rain* | Wind** | Luminosity | Snow |
|---|---|---|---|---|---|---|---|
| 1777663756 | 21.11° C | 21% | 934.4 hPa | 0 mm | - | 967 W/m² | - |
| 1777663453 | 20.56° C | 21% | 934.3 hPa | 0 mm | - | 957 W/m² | - |
| 1777663150 | 20.56° C | 21% | 934.2 hPa | 0 mm | - | 956 W/m² | - |
| 1777662847 | 20.56° C | 22% | 934.4 hPa | 0 mm | - | 956 W/m² | - |
| 1777662543 | 20.56° C | 21% | 934.4 hPa | 0 mm | - | 955 W/m² | - |
| 1777662240 | 21.11° C | 20% | 934.6 hPa | 0 mm | - | 952 W/m² | - |
| 1777661934 | 21.11° C | 19% | 934.8 hPa | 0 mm | - | 953 W/m² | - |
| 1777661631 | 20.56° C | 23% | 934.6 hPa | 0 mm | - | 952 W/m² | - |
| 1777661327 | 20.56° C | 22% | 934.8 hPa | 0 mm | - | 945 W/m² | - |
| 1777661023 | 20.56° C | 22% | 934.7 hPa | 0 mm | - | 945 W/m² | - |
| 1777660718 | 20.56° C | 22% | 934.9 hPa | 0 mm | - | 945 W/m² | - |
| 1777660416 | 20° C | 23% | 934.8 hPa | 0 mm | - | 942 W/m² | - |
| 1777660112 | 20° C | 23% | 934.6 hPa | 0 mm | - | 936 W/m² | - |
| 1777659809 | 20.56° C | 24% | 934.9 hPa | 0 mm | - | 934 W/m² | - |
| 1777659506 | 20.56° C | 22% | 934.9 hPa | 0 mm | - | 929 W/m² | - |
| 1777659203 | 20° C | 23% | 935 hPa | 0 mm | - | 924 W/m² | - |
| 1777658900 | 19.44° C | 22% | 935.1 hPa | 0 mm | - | 920 W/m² | - |
| 1777658596 | 20° C | 24% | 935 hPa | 0 mm | - | 913 W/m² | - |
| 1777658294 | 20° C | 23% | 935.1 hPa | 0 mm | - | 906 W/m² | - |
| 1777657990 | 19.44° C | 25% | 935.2 hPa | 0 mm | - | 899 W/m² | - |
| 1777657687 | 20° C | 28% | 935.1 hPa | 0 mm | - | 893 W/m² | - |
| 1777657384 | 19.44° C | 22% | 935.2 hPa | 0 mm | - | 885 W/m² | - |
| 1777657082 | 20° C | 25% | 935.2 hPa | 0 mm | - | 874 W/m² | - |
| 1777656780 | 19.44° C | 22% | 935.1 hPa | 0 mm | - | 866 W/m² | - |
| 1777656475 | 18.89° C | 30% | 935.2 hPa | 0 mm | - | 855 W/m² | - |
* Rain latest hour (hover to see other rain measurements)
** Current wind speed in m/s (hover to see current wind gust speed)